Location: Arrodets-la-Barthe
(43.0306°N, 0.2829°E)
Time: 16:06:19
(UTC+00:00)

Cosmos 2263 Rocket - Pass Details

Date: 24 October 2021
Orbit: 825 x 847 km, 71.0° (Epoch: 07 December)

Event Time Altitude Azimuth Distance (km) Brightness Sun altitude
Rises 18:32:19 0° 325° (NW) 3,370 5.8 -17.1°
Reaches altitude 10° 18:35:00 10° 315° (NW) 2,432 5.2 -17.6°
Maximum altitude 18:39:45 30° 256° (WSW) 1,453 4.1 -18.5°
Drops below altitude 10° 18:44:29 10° 198° (SSW) 2,422 4.8 -19.4°
Sets 18:47:11 0° 187° (S) 3,353 5.4 -19.9°
